Weather History for CYOW - April, 2014

Change the Weather History Date:

Monday, April 14, 2014

  Actual Average Record
Temperature  
Mean Temperature 58 °F -  
Max Temperature 78 °F 58 °F 78 °F (2014)
Min Temperature 37 °F 39 °F 24 °F (1997)
Degree Days  
Heating Degree Days 8    
Growing Degree Days 8 (Base 50)    
Moisture  
Dew Point 47 °F    
Average Humidity 87    
Maximum Humidity 100    
Minimum Humidity 32    
Precipitation  
Precipitation 0.16 in 0.10 in - ()
Sea Level Pressure  
Sea Level Pressure 29.66 in    
Wind  
Wind Speed 8 mph ()    
Max Wind Speed 24 mph    
Max Gust Speed 39 mph    
Visibility 5.6 miles    
Events Fog , Rain    
Averages and records for this station are not official NWS values.
T = Trace of Precipitation, MM = Missing Value Source: Averaged Metar Reports

Daily Weather History Graph

Daily Weather History Graph

Search for Another Location

Airport or City:

Trip Planner

Search our weather history database for the weather conditions in past years. The results will help you decide how hot, cold, wet, or windy it might be!

Date:

Astronomy

Apr. 14, 2014 Rise Set
Actual Time 6:19 AM EDT 7:47 PM EDT
Civil Twilight 5:48 AM EDT 8:18 PM EDT
Nautical Twilight 5:11 AM EDT 8:55 PM EDT
Astronomical Twilight 4:31 AM EDT 9:35 PM EDT
Moon 7:23 PM EDT (4/14) 5:52 AM EDT (4/14)
Length of Visible Light 14h 29m
Length of Day
13h 28m
Full, 100% of the Moon is Illuminated
Apr 14
Full
Apr 15
Full
Apr 22
Last Quarter
Apr 29
New
May 6
First Quarter

Hourly Weather History & Observations

Time (EDT) Temp. Windchill Dew Point Humidity Pressure Visibility Wind Dir Wind Speed Gust Speed Precip Events Conditions
12:00 AM 41.0 °F 37.1 °F 41.0 °F 100% 29.86 in 4.0 mi SE 5.8 mph - N/A Rain Light Rain
12:55 AM 41.0 °F 38.0 °F 41.0 °F 100% 29.83 in 4.0 mi NE 4.6 mph - N/A   Overcast
1:00 AM 41.0 °F 38.0 °F 41.0 °F 100% 29.82 in 4.0 mi East 4.6 mph - N/A Rain Light Rain Showers
1:25 AM 41.0 °F 37.1 °F 41.0 °F 100% 29.83 in 3.0 mi East 5.8 mph - N/A   Overcast
1:35 AM 41.0 °F 37.1 °F 41.0 °F 100% 29.82 in 1.5 mi East 5.8 mph - N/A   Overcast
2:00 AM 41 °F - 41 °F 98% 29.82 in 1 mi ENE 4.6 mph - - Rain Light Rain Showers
2:00 AM 41.0 °F 38.0 °F 41.0 °F 100% 29.82 in 1.2 mi ENE 4.6 mph - N/A   Overcast
2:32 AM 41.0 °F 35.8 °F 41.0 °F 100% 29.81 in 0.6 mi ENE 8.1 mph - N/A   Mist
3:00 AM 41.0 °F 35.2 °F 39.2 °F 93% 29.80 in 0.5 mi NE 9.2 mph - N/A Fog Fog
4:00 AM 39.2 °F 32.0 °F 39.2 °F 100% 29.77 in 0.4 mi ENE 11.5 mph - N/A Fog Fog
5:00 AM 39.2 °F 32.0 °F 37.4 °F 93% 29.73 in 0.2 mi ENE 11.5 mph - N/A Fog Fog
6:00 AM 37.4 °F 31.4 °F 37.4 °F 100% 29.70 in 0.4 mi ENE 8.1 mph - N/A Fog Fog
7:00 AM 37.4 °F 30.8 °F 37.4 °F 100% 29.69 in 0.2 mi East 9.2 mph - N/A Fog Fog
8:00 AM 39 °F - 39 °F 98% 29.68 in 0 mi East 5.8 mph - - Fog Heavy Fog
8:00 AM 39.2 °F 35.0 °F 39.2 °F 100% 29.67 in 0.2 mi East 5.8 mph - N/A Fog Fog
8:45 AM 41.0 °F 35.8 °F 39.2 °F 93% 29.66 in 0.4 mi East 8.1 mph - N/A Fog Fog
9:00 AM 41.0 °F 35.8 °F 41.0 °F 100% 29.65 in 0.4 mi East 8.1 mph - N/A Fog Fog
9:08 AM 41.0 °F 35.2 °F 41.0 °F 100% 29.65 in 1.0 mi East 9.2 mph - N/A   Overcast
9:20 AM 42.8 °F 38.6 °F 42.8 °F 100% 29.65 in 2.5 mi East 6.9 mph - N/A   Mostly Cloudy
9:51 AM 44.6 °F 40.7 °F 44.6 °F 100% 29.65 in 5.0 mi ENE 6.9 mph - N/A   Mostly Cloudy
10:00 AM 46.4 °F 43.5 °F 46.4 °F 100% 29.65 in 8.0 mi East 5.8 mph - N/A   Mostly Cloudy
11:00 AM 55.4 °F - 50.0 °F 82% 29.62 in 10.0 mi East 8.1 mph - N/A   Mostly Cloudy
12:00 PM 62.6 °F - 53.6 °F 72% 29.58 in 10.0 mi East 9.2 mph - N/A   Mostly Cloudy
1:00 PM 77.0 °F - 55.4 °F 47% 29.54 in 15.0 mi SSW 20.7 mph 33.4 mph N/A   Mostly Cloudy
2:00 PM 78 °F - 54 °F 32% 29.53 in 10 mi SSW 24.2 mph - -   Partly Cloudy
2:00 PM 77.0 °F - 53.6 °F 44% 29.53 in 10.0 mi SSW 24.2 mph 36.8 mph N/A   Mostly Cloudy
3:00 PM 73.4 °F - 53.6 °F 50% 29.53 in 15.0 mi SSW 20.7 mph 39.1 mph N/A   Overcast
3:39 PM 71.6 °F - 53.6 °F 53% 29.52 in 6.0 mi SSW 23.0 mph 31.1 mph N/A Rain Light Rain Showers
4:00 PM 69.8 °F - 55.4 °F 60% 29.54 in 15.0 mi SW 20.7 mph 32.2 mph N/A Rain Light Rain Showers
4:20 PM 68.0 °F - 55.4 °F 64% 29.54 in 10.0 mi SW 18.4 mph 38.0 mph N/A Rain Light Rain
5:00 PM 60.8 °F - 57.2 °F 88% 29.57 in 8.0 mi SW 17.3 mph 25.3 mph N/A Rain Light Rain
6:00 PM 60.8 °F - 57.2 °F 88% 29.57 in 8.0 mi SSW 11.5 mph - N/A Rain Light Rain
7:00 PM 59.0 °F - 57.2 °F 94% 29.52 in 8.0 mi South 18.4 mph 27.6 mph N/A Rain Light Rain
8:00 PM 60 °F - 58 °F 89% 29.58 in 10 mi SSW 11.5 mph - - Rain Light Rain
8:00 PM 60.8 °F - 57.2 °F 88% 29.57 in 10.0 mi SSW 11.5 mph - N/A   Overcast
9:00 PM 59.0 °F - 57.2 °F 94% 29.60 in 10.0 mi South 10.4 mph - N/A   Overcast
10:00 PM 59.0 °F - 57.2 °F 94% 29.60 in 10.0 mi SSW 10.4 mph - N/A   Overcast
11:00 PM 59.0 °F - 55.4 °F 88% 29.61 in 10.0 mi WSW 10.4 mph - N/A   Overcast